This demonstration page uses our WeatherBlox Daily Observations layout. Learn more.

41.55636, -103.73856

Hourly Observations for May 12, 2015

Temp ( °F °C ) Dew Point ( °F °C ) Humidity (%) Winds ( mph kmh ) Pressure ( in mb ) Visibility ( mi km ) Precip ( " mm )
12:53 am 00:53 Clear 34 1.1 30 -1.1 85 85 E 7 11 30.16 1022 10 16.0934 0 0
1:53 am 01:53 Clear 34 1.1 30 -1.1 85 85 E 6 9 30.14 1021 10 16.0934 0 0
2:53 am 02:53 Clear 35 1.7 30 -1.1 82 82 ESE 9 15 30.13 1020 10 16.0934 0 0
3:53 am 03:53 Clear 34 1.1 29 -1.7 82 82 ESE 8 13 30.12 1020 10 16.0934 0 0
4:53 am 04:53 Clear 35 1.7 29 -1.7 78 78 ESE 12 19 30.11 1020 10 16.0934 0 0
5:53 am 05:53 Sunny 35 1.7 28 -2.2 76 76 ESE 14 22 30.1 1019 10 16.0934 0 0
6:53 am 06:53 Sunny 38 3.3 31 -0.6 76 76 E 14 22 30.09 1019 10 16.0934 0 0
7:53 am 07:53 Sunny 43 6.1 32 0 65 65 E 13 20 30.08 1019 10 16.0934 0 0
8:53 am 08:53 Sunny 50 10 31 -0.6 48 48 SSE 18 30 30.05 1018 10 16.0934 0 0
9:53 am 09:53 Sunny 50 10 33 0.6 52 52 SSE 14 22 30.05 1018 10 16.0934 0 0
10:53 am 10:53 Sunny 54 12.2 37 2.8 53 53 SSE 12 19 30.03 1017 10 16.0934 0 0
11:53 am 11:53 Sunny 57 13.9 40 4.4 53 53 SE 14 22 30.01 1016 10 16.0934 0 0
12:53 pm 12:53 Sunny 63 17.2 44 6.7 50 50 SE 17 28 29.97 1015 10 16.0934 0 0
1:53 pm 13:53 Sunny 67 19.4 46 7.8 47 47 SE 16 26 29.92 1013 10 16.0934 0 0
2:53 pm 14:53 Sunny 73 22.8 49 9.4 43 43 SE 15 24 29.88 1012 10 16.0934 0 0
3:53 pm 15:53 Sunny 76 24.4 45 7.2 33 33 SSE 16 26 29.85 1011 10 16.0934 0 0
4:53 pm 16:53 Sunny 77 25 45 7.2 32 32 SSE 16 26 29.81 1010 10 16.0934 0 0
5:53 pm 17:53 Sunny 76 24.4 45 7.2 33 33 S 14 22 29.81 1009 10 16.0934 0 0
6:53 pm 18:53 Sunny 71 21.7 47 8.3 42 42 SSE 10 17 29.8 1009 10 16.0934 0 0
7:53 pm 19:53 Sunny 65 18.3 48 8.9 54 54 SE 8 13 29.81 1010 10 16.0934 0 0
8:53 pm 20:53 Clear 62 16.7 47 8.3 58 58 SE 12 19 29.82 1010 10 16.0934 0 0
9:53 pm 21:53 Clear 60 15.6 47 8.3 62 62 ESE 8 13 29.83 1010 10 16.0934 0 0
10:53 pm 22:53 Clear 56 13.3 46 7.8 70 70 ESE 12 19 29.83 1010 10 16.0934 0 0
11:53 pm 23:53 Clear 55 12.8 45 7.2 69 69 ESE 10 17 29.83 1010 10 16.0934 0 0

Powered by AerisWeather